{"data":{"norad_id":50822,"epoch":"2026-09-20T00:00:39.895200Z","epoch_age_seconds":91396,"freshness":"FRESH","line1":"1 50822U 22001V   26263.00046175  .00000105  00000+0  15130-4 0  9993","line2":"2 50822  53.1607   6.0984 0000963  93.4131 266.6981 15.31701714259887","mean_motion":15.31701714,"eccentricity":9.63e-5,"inclination_deg":53.1607,"raan_deg":6.0984,"arg_perigee_deg":93.4131,"mean_anomaly_deg":266.6981,"bstar":1.513e-5,"rev_number":25988,"period_min":94.013082758749,"perigee_km":470.07533952299,"apogee_km":471.39443224821,"semimajor_km":6848.8718858856,"source":"CELESTRAK","updated_at":"2026-09-20T09:00:39.578445Z"}}